World > North America > United States > Mississippi > Arcola

Arcola, MS Hourly Weather Conditions

Feedback E-mail the Weather

Quick WX

Arcola, MS Weather Maps

°F °C°F °C
Arcola Weather Map
UTC Time: 11/27/2022, 15:12
Your Time:

Arcola, MS Regional Weather

Expires:202211271400;;891604
ASUS44 KJAN 271310
RWRMS 

MISSISSIPPI HOURLY WEATHER ROUNDUP
NATIONAL WEATHER SERVICE JACKSON MS
700 AM CST SUN NOV 27 2022

NOTE: "FAIR: INDICATES FEW OR NO CLOUDS BELOW 12,000 FEET WITH NO
SIGNIFICANT WEATHER AND/OR OBSTRUCTIONS TO VISIBILITY.


MSZ001>002-007>008-010>013-018>021-025>028-034>036-271400-
NORTHWEST MISSISSIPPI
  
CITY           SKY/WX    TMP DP  RH WIND       PRES   REMARKS
BATESVILLE     CLOUDY    50  43  76 SW13G21   29.74S                  
CLARKSDALE     CLOUDY    50  45  81 SW13      29.76R                  
CLEVELAND      MOCLDY    47  42  84 SW13      29.79R                  
GREENWOOD      CLEAR     49  42  77 SW10      29.80R                  
GREENVILLE     CLEAR     49  41  74 SW13      29.78R                  
OXFORD         CLOUDY    48  41  76 SW10G26   29.76R                  
TUNICA         CLOUDY    49  46  88 SW17      29.72R                  
$$


SKY/WX - Weather  TMP - Temperature  DP - Dew Point  RH - Humidity
WIND - Wind Direction/Speed PRES - Barometric Pressure VSB - Visibility
WCI - Wind Chill Index E13G22 Wind - East Wind 13 mph/Gusts of 22 mph

Trending Headlines

Trending Entertainment Headlines

Arcola Radar Loop

Use the map search tool if you want to place a location marker on the radar map...

Arcola Quick Facts

National Two Day Weather Forecast


E-mail the Arcola Weather Forecast

Voice your opinion or tell us about page issues...